Time,TemperatureF,DewpointF,PressureIn,WindDirection,WindDirectionDegrees,WindSpeedMPH,WindSpeedGustMPH,Humidity,HourlyPrecipIn,Conditions,Clouds,dailyrainin,SoftwareType,DateUTC
2013-08-31 00:03:00,63.0,54.5,29.93,WSW,247,0.9,-999.0,74,0.00,,,-99.99,,2013-08-31 07:03:00,
2013-08-31 00:08:00,62.8,54.4,29.93,SSW,202,1.1,-999.0,74,0.00,,,-99.99,,2013-08-31 07:08:00,
2013-08-31 00:13:00,62.6,54.2,29.93,North,0,1.1,-999.0,74,0.00,,,-99.99,,2013-08-31 07:13:00,
2013-08-31 00:18:00,62.6,54.2,29.94,North,0,2.5,-999.0,74,0.00,,,-99.99,,2013-08-31 07:18:00,
2013-08-31 00:23:00,62.5,54.0,29.94,NW,315,1.1,-999.0,74,0.00,,,-99.99,,2013-08-31 07:23:00,
2013-08-31 00:28:00,62.5,54.0,29.94,NNE,22,1.1,-999.0,74,0.00,,,-99.99,,2013-08-31 07:28:00,
2013-08-31 00:33:00,62.5,54.0,29.94,North,0,1.8,-999.0,74,0.00,,,-99.99,,2013-08-31 07:33:00,
2013-08-31 00:38:00,62.3,53.5,29.94,WSW,247,0.9,-999.0,73,0.00,,,-99.99,,2013-08-31 07:38:00,
2013-08-31 00:43:00,62.3,53.8,29.94,NNW,337,0.0,-999.0,74,0.00,,,-99.99,,2013-08-31 07:43:00,
2013-08-31 00:49:00,62.1,54.1,29.94,NW,315,1.8,-999.0,75,0.00,,,-99.99,,2013-08-31 07:49:00,
2013-08-31 00:54:00,62.3,53.8,29.94,NNE,22,0.0,-999.0,74,0.00,,,-99.99,,2013-08-31 07:54:00,
2013-08-31 00:59:00,62.1,54.1,29.94,WNW,292,0.4,-999.0,75,0.00,,,-99.99,,2013-08-31 07:59:00,
2013-08-31 01:04:00,62.1,53.7,29.94,North,0,1.1,-999.0,74,0.00,,,-99.99,,2013-08-31 08:04:00,
2013-08-31 01:09:00,61.9,53.6,29.94,NW,315,0.0,-999.0,74,0.00,,,-99.99,,2013-08-31 08:09:00,
2013-08-31 01:14:00,61.6,53.2,29.94,North,0,0.9,-999.0,74,0.00,,,-99.99,,2013-08-31 08:14:00,
2013-08-31 01:19:00,61.6,53.2,29.93,NNW,337,0.0,-999.0,74,0.00,,,-99.99,,2013-08-31 08:19:00,
2013-08-31 01:24:00,61.4,53.4,29.93,North,0,0.4,-999.0,75,0.00,,,-99.99,,2013-08-31 08:24:00,
2013-08-31 01:29:00,61.2,53.3,29.93,NNW,337,0.4,-999.0,75,0.00,,,-99.99,,2013-08-31 08:29:00,
2013-08-31 01:34:00,61.2,53.3,29.93,North,0,0.4,-999.0,75,0.00,,,-99.99,,2013-08-31 08:34:00,
2013-08-31 01:39:00,60.8,52.9,29.93,North,0,0.0,-999.0,75,0.00,,,-99.99,,2013-08-31 08:39:00,
2013-08-31 01:44:00,60.8,52.9,29.93,NNW,337,0.0,-999.0,75,0.00,,,-99.99,,2013-08-31 08:44:00,
2013-08-31 01:49:00,60.7,52.7,29.93,NNW,337,0.0,-999.0,75,0.00,,,-99.99,,2013-08-31 08:49:00,
2013-08-31 01:54:00,60.5,52.6,29.93,NNW,337,0.0,-999.0,75,0.00,,,-99.99,,2013-08-31 08:54:00,
2013-08-31 01:59:00,60.3,52.7,29.93,NNW,337,0.4,-999.0,76,0.00,,,-99.99,,2013-08-31 08:59:00,
2013-08-31 02:04:00,60.3,52.4,29.93,WNW,292,0.0,-999.0,75,0.00,,,-99.99,,2013-08-31 09:04:00,
2013-08-31 02:09:00,60.3,52.4,29.93,WNW,292,0.0,-999.0,75,0.00,,,-99.99,,2013-08-31 09:09:00,
2013-08-31 02:14:00,60.1,52.2,29.93,NW,315,0.0,-999.0,75,0.00,,,-99.99,,2013-08-31 09:14:00,
2013-08-31 02:19:00,60.1,52.2,29.93,North,0,0.0,-999.0,75,0.00,,,-99.99,,2013-08-31 09:19:00,
2013-08-31 02:24:00,59.9,52.0,29.93,North,0,0.0,-999.0,75,0.00,,,-99.99,,2013-08-31 09:24:00,
2013-08-31 02:29:00,59.8,51.8,29.93,North,0,0.0,-999.0,75,0.00,,,-99.99,,2013-08-31 09:29:00,
2013-08-31 02:34:00,59.4,51.5,29.93,North,0,0.0,-999.0,75,0.00,,,-99.99,,2013-08-31 09:34:00,
2013-08-31 02:39:00,59.2,51.3,29.93,North,0,0.7,-999.0,75,0.00,,,-99.99,,2013-08-31 09:39:00,
2013-08-31 02:44:00,59.0,51.5,29.93,North,0,0.4,-999.0,76,0.00,,,-99.99,,2013-08-31 09:44:00,
2013-08-31 02:49:00,58.9,51.7,29.93,North,0,0.0,-999.0,77,0.00,,,-99.99,,2013-08-31 09:49:00,
2013-08-31 02:54:00,58.7,51.5,29.93,North,0,0.0,-999.0,77,0.00,,,-99.99,,2013-08-31 09:54:00,
2013-08-31 02:59:00,58.5,50.9,29.93,North,0,0.0,-999.0,76,0.00,,,-99.99,,2013-08-31 09:59:00,
2013-08-31 03:04:00,58.3,51.5,29.93,North,0,0.4,-999.0,78,0.00,,,-99.99,,2013-08-31 10:04:00,
2013-08-31 03:09:00,58.1,50.9,29.93,NNW,337,0.0,-999.0,77,0.00,,,-99.99,,2013-08-31 10:09:00,
2013-08-31 03:14:00,58.1,51.3,29.93,NNW,337,0.0,-999.0,78,0.00,,,-99.99,,2013-08-31 10:14:00,
2013-08-31 03:19:00,58.0,51.1,29.93,NNW,337,0.0,-999.0,78,0.00,,,-99.99,,2013-08-31 10:19:00,
2013-08-31 03:24:00,58.0,51.1,29.93,NNW,337,0.0,-999.0,78,0.00,,,-99.99,,2013-08-31 10:24:00,
2013-08-31 03:29:00,58.0,51.1,29.93,North,0,0.0,-999.0,78,0.00,,,-99.99,,2013-08-31 10:29:00,
2013-08-31 03:34:00,57.8,51.3,29.93,NNE,22,1.1,-999.0,79,0.00,,,-99.99,,2013-08-31 10:34:00,
2013-08-31 03:39:00,57.6,50.8,29.93,NNE,22,0.0,-999.0,78,0.00,,,-99.99,,2013-08-31 10:39:00,
2013-08-31 03:44:00,57.4,50.9,29.93,NNE,22,0.0,-999.0,79,0.00,,,-99.99,,2013-08-31 10:44:00,
2013-08-31 03:49:00,57.2,50.8,29.93,NNE,22,0.0,-999.0,79,0.00,,,-99.99,,2013-08-31 10:49:00,
2013-08-31 03:54:00,57.1,50.6,29.93,NNE,22,0.0,-999.0,79,0.00,,,-99.99,,2013-08-31 10:54:00,
2013-08-31 03:59:00,57.1,51.3,29.93,NNE,22,0.0,-999.0,81,0.00,,,-99.99,,2013-08-31 10:59:00,
2013-08-31 04:04:00,56.9,51.4,29.93,NNW,337,0.4,-999.0,82,0.00,,,-99.99,,2013-08-31 11:04:00,
2013-08-31 04:09:00,56.9,51.1,29.93,NW,315,0.7,-999.0,81,0.00,,,-99.99,,2013-08-31 11:09:00,
2013-08-31 04:14:00,56.9,51.1,29.93,NNW,337,0.0,-999.0,81,0.00,,,-99.99,,2013-08-31 11:14:00,
2013-08-31 04:19:00,56.9,51.1,29.93,NNW,337,1.1,-999.0,81,0.00,,,-99.99,,2013-08-31 11:19:00,
2013-08-31 04:24:00,56.7,50.6,29.93,NNW,337,0.4,-999.0,80,0.00,,,-99.99,,2013-08-31 11:24:00,
2013-08-31 04:30:00,56.5,50.8,29.93,NNW,337,0.0,-999.0,81,0.00,,,-99.99,,2013-08-31 11:30:00,
2013-08-31 04:35:00,56.5,50.8,29.93,NNW,337,0.0,-999.0,81,0.00,,,-99.99,,2013-08-31 11:35:00,
2013-08-31 04:40:00,56.5,50.8,29.93,North,0,0.9,-999.0,81,0.00,,,-99.99,,2013-08-31 11:40:00,
2013-08-31 04:45:00,56.5,51.0,29.93,NNW,337,0.4,-999.0,82,0.00,,,-99.99,,2013-08-31 11:45:00,
2013-08-31 04:50:00,56.7,51.6,29.94,NNW,337,0.9,-999.0,83,0.00,,,-99.99,,2013-08-31 11:50:00,
2013-08-31 04:55:00,56.5,51.4,29.94,NNW,337,0.7,-999.0,83,0.00,,,-99.99,,2013-08-31 11:55:00,
2013-08-31 05:00:00,56.5,51.0,29.94,North,0,0.4,-999.0,82,0.00,,,-99.99,,2013-08-31 12:00:00,
2013-08-31 05:05:00,56.3,50.9,29.94,North,0,0.4,-999.0,82,0.00,,,-99.99,,2013-08-31 12:05:00,
2013-08-31 05:10:00,56.3,51.2,29.94,NNW,337,0.4,-999.0,83,0.00,,,-99.99,,2013-08-31 12:10:00,
2013-08-31 05:15:00,56.2,50.7,29.94,North,0,1.1,-999.0,82,0.00,,,-99.99,,2013-08-31 12:15:00,
2013-08-31 05:20:00,56.2,50.7,29.94,NNW,337,2.0,-999.0,82,0.00,,,-99.99,,2013-08-31 12:20:00,
2013-08-31 05:25:00,56.2,50.7,29.94,North,0,0.4,-999.0,82,0.00,,,-99.99,,2013-08-31 12:25:00,
2013-08-31 05:30:00,56.2,50.7,29.94,North,0,1.1,-999.0,82,0.00,,,-99.99,,2013-08-31 12:30:00,
2013-08-31 05:35:00,56.2,51.0,29.95,North,0,0.9,-999.0,83,0.00,,,-99.99,,2013-08-31 12:35:00,
2013-08-31 05:40:00,56.0,50.5,29.94,NNW,337,1.1,-999.0,82,0.00,,,-99.99,,2013-08-31 12:40:00,
2013-08-31 05:45:00,55.8,50.7,29.94,North,0,0.4,-999.0,83,0.00,,,-99.99,,2013-08-31 12:45:00,
2013-08-31 05:50:00,55.8,50.3,29.95,NNW,337,0.4,-999.0,82,0.00,,,-99.99,,2013-08-31 12:50:00,
2013-08-31 05:55:00,55.6,50.1,29.95,North,0,1.3,-999.0,82,0.00,,,-99.99,,2013-08-31 12:55:00,
2013-08-31 06:00:00,55.6,50.1,29.95,NNW,337,0.2,-999.0,82,0.00,,,-99.99,,2013-08-31 13:00:00,
2013-08-31 06:05:00,55.8,50.3,29.94,NNW,337,0.0,-999.0,82,0.00,,,-99.99,,2013-08-31 13:05:00,
2013-08-31 06:10:00,55.6,50.1,29.95,NNW,337,0.0,-999.0,82,0.00,,,-99.99,,2013-08-31 13:10:00,
2013-08-31 06:15:00,55.4,49.7,29.95,NNW,337,0.0,-999.0,81,0.00,,,-99.99,,2013-08-31 13:15:00,
2013-08-31 06:20:00,55.3,49.5,29.95,NNW,337,0.0,-999.0,81,0.00,,,-99.99,,2013-08-31 13:20:00,
2013-08-31 06:25:00,55.3,49.8,29.95,North,0,0.4,-999.0,82,0.00,,,-99.99,,2013-08-31 13:25:00,
2013-08-31 06:30:00,55.1,49.7,29.95,NNW,337,0.9,-999.0,82,0.00,,,-99.99,,2013-08-31 13:30:00,
2013-08-31 06:35:00,55.1,50.0,29.95,North,0,0.7,-999.0,83,0.00,,,-99.99,,2013-08-31 13:35:00,
2013-08-31 06:40:00,54.9,50.1,29.95,North,0,0.4,-999.0,84,0.00,,,-99.99,,2013-08-31 13:40:00,
2013-08-31 06:45:00,54.9,49.8,29.95,North,0,1.1,-999.0,83,0.00,,,-99.99,,2013-08-31 13:45:00,
2013-08-31 06:50:00,54.7,50.0,29.95,NNW,337,1.1,-999.0,84,0.00,,,-99.99,,2013-08-31 13:50:00,
2013-08-31 06:55:00,54.7,50.0,29.95,NNW,337,0.2,-999.0,84,0.00,,,-99.99,,2013-08-31 13:55:00,
2013-08-31 07:00:00,54.9,50.1,29.95,NNW,337,0.2,-999.0,84,0.00,,,-99.99,,2013-08-31 14:00:00,
2013-08-31 07:05:00,54.7,50.0,29.95,NNW,337,0.4,-999.0,84,0.00,,,-99.99,,2013-08-31 14:05:00,
2013-08-31 07:10:00,55.1,51.0,29.95,North,0,0.9,-999.0,86,0.00,,,-99.99,,2013-08-31 14:10:00,
2013-08-31 07:15:00,55.3,51.1,29.95,NNW,337,1.1,-999.0,86,0.00,,,-99.99,,2013-08-31 14:15:00,
2013-08-31 07:20:00,55.3,51.1,29.96,NNW,337,0.7,-999.0,86,0.00,,,-99.99,,2013-08-31 14:20:00,
2013-08-31 07:25:00,55.3,51.8,29.96,North,0,1.6,-999.0,88,0.00,,,-99.99,,2013-08-31 14:25:00,
2013-08-31 07:30:00,55.1,51.2,29.96,NNW,337,0.4,-999.0,87,0.00,,,-99.99,,2013-08-31 14:30:00,
2013-08-31 07:35:00,55.3,51.4,29.96,NNW,337,0.0,-999.0,87,0.00,,,-99.99,,2013-08-31 14:35:00,
2013-08-31 07:40:00,55.4,51.6,29.96,North,0,0.2,-999.0,87,0.00,,,-99.99,,2013-08-31 14:40:00,
2013-08-31 07:45:00,55.6,52.1,29.96,North,0,1.1,-999.0,88,0.00,,,-99.99,,2013-08-31 14:45:00,
2013-08-31 07:51:00,55.8,52.3,29.96,North,0,0.7,-999.0,88,0.00,,,-99.99,,2013-08-31 14:51:00,
2013-08-31 07:56:00,55.8,52.3,29.96,North,0,1.1,-999.0,88,0.00,,,-99.99,,2013-08-31 14:56:00,
2013-08-31 08:01:00,56.2,52.7,29.96,North,0,0.2,-999.0,88,0.00,,,-99.99,,2013-08-31 15:01:00,
2013-08-31 08:06:00,56.3,52.8,29.96,North,0,1.8,-999.0,88,0.00,,,-99.99,,2013-08-31 15:06:00,
2013-08-31 08:11:00,56.5,53.0,29.96,North,0,0.0,-999.0,88,0.00,,,-99.99,,2013-08-31 15:11:00,
2013-08-31 08:16:00,56.9,53.4,29.96,NW,315,0.9,-999.0,88,0.00,,,-99.99,,2013-08-31 15:16:00,
2013-08-31 08:21:00,57.1,53.6,29.96,NW,315,1.8,-999.0,88,0.00,,,-99.99,,2013-08-31 15:21:00,
2013-08-31 08:26:00,57.4,53.9,29.96,NNW,337,1.8,-999.0,88,0.00,,,-99.99,,2013-08-31 15:26:00,
2013-08-31 08:31:00,57.6,54.1,29.96,North,0,1.8,-999.0,88,0.00,,,-99.99,,2013-08-31 15:31:00,
2013-08-31 08:36:00,57.8,53.9,29.96,NW,315,1.8,-999.0,87,0.00,,,-99.99,,2013-08-31 15:36:00,
2013-08-31 08:41:00,58.1,54.3,29.96,NNW,337,2.5,-999.0,87,0.00,,,-99.99,,2013-08-31 15:41:00,
2013-08-31 08:46:00,58.3,54.5,29.96,North,0,2.7,-999.0,87,0.00,,,-99.99,,2013-08-31 15:46:00,
2013-08-31 08:51:00,58.7,54.2,29.96,NW,315,2.9,-999.0,85,0.00,,,-99.99,,2013-08-31 15:51:00,
2013-08-31 08:56:00,59.0,54.2,29.96,North,0,2.5,-999.0,84,0.00,,,-99.99,,2013-08-31 15:56:00,
2013-08-31 09:01:00,59.8,54.9,29.96,North,0,2.0,-999.0,84,0.00,,,-99.99,,2013-08-31 16:01:00,
2013-08-31 09:06:00,60.1,55.0,29.96,WSW,247,0.9,-999.0,83,0.00,,,0.00,,2013-08-31 16:06:00,
2013-08-31 09:11:00,60.5,55.0,29.96,NNW,337,0.4,-999.0,82,0.00,,,0.00,,2013-08-31 16:11:00,
2013-08-31 09:16:00,61.4,55.9,29.96,West,270,0.9,-999.0,82,0.00,,,0.00,,2013-08-31 16:16:00,
2013-08-31 09:21:00,62.1,55.9,29.96,WNW,292,1.1,-999.0,80,0.00,,,0.00,,2013-08-31 16:21:00,
2013-08-31 09:26:00,63.0,56.0,29.96,NNW,337,1.6,-999.0,78,0.00,,,0.00,,2013-08-31 16:26:00,
2013-08-31 09:31:00,63.5,56.9,29.96,West,270,1.6,-999.0,79,0.00,,,0.00,,2013-08-31 16:31:00,
2013-08-31 09:36:00,64.4,57.1,29.97,North,0,0.4,-999.0,77,0.00,,,0.00,,2013-08-31 16:36:00,
2013-08-31 09:41:00,65.3,58.0,29.97,WSW,247,1.1,-999.0,77,0.00,,,0.00,,2013-08-31 16:41:00,
2013-08-31 09:46:00,66.4,58.2,29.97,NE,45,0.9,-999.0,75,0.00,,,0.00,,2013-08-31 16:46:00,
2013-08-31 09:51:00,67.0,58.4,29.97,SW,225,2.5,-999.0,74,0.00,,,0.00,,2013-08-31 16:51:00,
2013-08-31 09:56:00,68.2,59.2,29.97,NE,45,0.4,-999.0,73,0.00,,,0.00,,2013-08-31 16:56:00,
2013-08-31 10:01:00,68.9,58.0,29.97,North,0,1.8,-999.0,68,0.00,,,0.00,,2013-08-31 17:01:00,
2013-08-31 10:06:00,69.1,58.1,29.97,SW,225,0.9,-999.0,68,0.00,,,0.00,,2013-08-31 17:06:00,
2013-08-31 10:11:00,69.8,58.8,29.97,North,0,1.8,-999.0,68,0.00,,,0.00,,2013-08-31 17:11:00,
2013-08-31 10:16:00,70.4,58.1,29.96,WSW,247,1.8,-999.0,65,0.00,,,0.00,,2013-08-31 17:16:00,
2013-08-31 10:21:00,70.7,57.1,29.96,NW,315,1.8,-999.0,62,0.00,,,0.00,,2013-08-31 17:21:00,
2013-08-31 10:26:00,71.1,57.9,29.96,SW,225,2.7,-999.0,63,0.00,,,0.00,,2013-08-31 17:26:00,
2013-08-31 10:31:00,71.6,58.3,29.96,NNW,337,1.3,-999.0,63,0.00,,,0.00,,2013-08-31 17:31:00,
2013-08-31 10:36:00,72.4,58.6,29.96,WNW,292,1.1,-999.0,62,0.00,,,0.00,,2013-08-31 17:36:00,
2013-08-31 10:41:00,73.1,57.3,29.96,NNW,337,1.8,-999.0,58,0.00,,,0.00,,2013-08-31 17:41:00,
2013-08-31 10:46:00,73.6,58.3,29.96,SSW,202,1.1,-999.0,59,0.00,,,0.00,,2013-08-31 17:46:00,
2013-08-31 10:51:00,74.2,57.9,29.96,NW,315,1.3,-999.0,57,0.00,,,0.00,,2013-08-31 17:51:00,
2013-08-31 10:56:00,74.9,59.1,29.96,WSW,247,1.1,-999.0,58,0.00,,,0.00,,2013-08-31 17:56:00,
2013-08-31 11:01:00,76.0,57.6,29.96,NW,315,1.6,-999.0,53,0.00,,,0.00,,2013-08-31 18:01:00,
2013-08-31 11:06:00,76.3,58.0,29.96,SW,225,1.8,-999.0,53,0.00,,,0.00,,2013-08-31 18:06:00,
2013-08-31 11:12:00,76.7,58.2,29.96,WSW,247,1.8,-999.0,53,0.00,,,0.00,,2013-08-31 18:12:00,
2013-08-31 11:17:00,77.4,58.4,29.96,NNE,22,1.1,-999.0,52,0.00,,,0.00,,2013-08-31 18:17:00,
2013-08-31 11:22:00,77.8,59.2,29.96,SW,225,1.3,-999.0,53,0.00,,,0.00,,2013-08-31 18:22:00,
2013-08-31 11:27:00,78.3,58.7,29.96,WSW,247,6.3,-999.0,51,0.00,,,0.00,,2013-08-31 18:27:00,
2013-08-31 11:32:00,78.5,58.9,29.96,WNW,292,4.5,-999.0,51,0.00,,,0.00,,2013-08-31 18:32:00,
2013-08-31 11:37:00,78.5,58.3,29.96,South,180,6.3,-999.0,50,0.00,,,0.00,,2013-08-31 18:37:00,
2013-08-31 11:42:00,78.8,58.7,29.96,SW,225,4.7,-999.0,50,0.00,,,0.00,,2013-08-31 18:42:00,
2013-08-31 11:47:00,79.2,58.4,29.96,SSW,202,4.5,-999.0,49,0.00,,,0.00,,2013-08-31 18:47:00,
2013-08-31 11:52:00,78.8,58.1,29.96,WSW,247,5.4,-999.0,49,0.00,,,0.00,,2013-08-31 18:52:00,
2013-08-31 11:57:00,79.2,58.4,29.96,WSW,247,0.9,-999.0,49,0.00,,,0.00,,2013-08-31 18:57:00,
2013-08-31 12:02:00,79.2,57.8,29.95,WSW,247,5.1,-999.0,48,0.00,,,0.00,,2013-08-31 19:02:00,
2013-08-31 12:07:00,79.6,58.2,29.96,West,270,0.4,-999.0,48,0.00,,,0.00,,2013-08-31 19:07:00,
2013-08-31 12:12:00,80.1,58.6,29.95,SSW,202,6.0,-999.0,48,0.00,,,0.00,,2013-08-31 19:12:00,
2013-08-31 12:17:00,80.8,59.2,29.95,SSW,202,6.9,-999.0,48,0.00,,,0.00,,2013-08-31 19:17:00,
2013-08-31 12:22:00,81.0,58.1,29.95,West,270,4.7,-999.0,46,0.00,,,0.00,,2013-08-31 19:22:00,
2013-08-31 12:27:00,80.6,57.9,29.95,SSW,202,7.2,-999.0,46,0.00,,,0.00,,2013-08-31 19:27:00,
2013-08-31 12:32:00,80.1,58.0,29.95,SW,225,4.0,-999.0,47,0.00,,,0.00,,2013-08-31 19:32:00,
2013-08-31 12:37:00,79.6,57.5,29.95,North,0,2.9,-999.0,47,0.00,,,0.00,,2013-08-31 19:37:00,
2013-08-31 12:42:00,79.6,57.5,29.95,WSW,247,5.1,-999.0,47,0.00,,,0.00,,2013-08-31 19:42:00,
2013-08-31 12:48:00,79.9,58.4,29.95,West,270,4.3,-999.0,48,0.00,,,0.00,,2013-08-31 19:48:00,
2013-08-31 12:53:00,80.5,59.0,29.95,WNW,292,2.5,-999.0,48,0.00,,,0.00,,2013-08-31 19:53:00,
2013-08-31 12:58:00,80.3,57.5,29.95,WSW,247,2.2,-999.0,46,0.00,,,0.00,,2013-08-31 19:58:00,
2013-08-31 13:03:00,80.1,58.0,29.94,West,270,1.1,-999.0,47,0.00,,,0.00,,2013-08-31 20:03:00,
2013-08-31 13:08:00,80.3,57.5,29.94,West,270,5.1,-999.0,46,0.00,,,0.00,,2013-08-31 20:08:00,
2013-08-31 13:13:00,80.3,56.4,29.95,WSW,247,5.1,-999.0,44,0.00,,,0.00,,2013-08-31 20:13:00,
2013-08-31 13:18:00,80.3,56.9,29.94,WSW,247,3.8,-999.0,45,0.00,,,0.00,,2013-08-31 20:18:00,
2013-08-31 13:23:00,80.6,57.2,29.94,WNW,292,4.5,-999.0,45,0.00,,,0.00,,2013-08-31 20:23:00,
2013-08-31 13:28:00,80.8,56.8,29.94,SW,225,6.3,-999.0,44,0.00,,,0.00,,2013-08-31 20:28:00,
2013-08-31 13:33:00,80.8,56.2,29.94,West,270,6.3,-999.0,43,0.00,,,0.00,,2013-08-31 20:33:00,
2013-08-31 13:38:00,81.4,57.2,29.94,NNW,337,3.6,-999.0,44,0.00,,,0.00,,2013-08-31 20:38:00,
2013-08-31 13:43:00,81.7,57.6,29.94,WSW,247,3.4,-999.0,44,0.00,,,0.00,,2013-08-31 20:43:00,
2013-08-31 13:48:00,81.5,57.4,29.94,SW,225,5.4,-999.0,44,0.00,,,0.00,,2013-08-31 20:48:00,
2013-08-31 13:53:00,80.8,56.2,29.94,SW,225,6.3,-999.0,43,0.00,,,0.00,,2013-08-31 20:53:00,
2013-08-31 13:58:00,79.9,56.6,29.94,WNW,292,1.6,-999.0,45,0.00,,,0.00,,2013-08-31 20:58:00,
2013-08-31 14:03:00,79.6,56.3,29.94,WNW,292,4.7,-999.0,45,0.00,,,0.00,,2013-08-31 21:03:00,
2013-08-31 14:08:00,79.4,57.3,29.94,West,270,2.7,-999.0,47,0.00,,,0.00,,2013-08-31 21:08:00,
2013-08-31 14:13:00,79.2,57.2,29.94,West,270,8.7,-999.0,47,0.00,,,0.00,,2013-08-31 21:13:00,
2013-08-31 14:18:00,79.2,56.5,29.94,West,270,1.8,-999.0,46,0.00,,,0.00,,2013-08-31 21:18:00,
2013-08-31 14:24:00,78.7,56.7,29.94,SSW,202,4.3,-999.0,47,0.00,,,0.00,,2013-08-31 21:24:00,
2013-08-31 14:29:00,78.5,57.2,29.94,SW,225,0.0,-999.0,48,0.00,,,0.00,,2013-08-31 21:29:00,
2013-08-31 14:34:00,78.1,56.8,29.94,WNW,292,4.9,-999.0,48,0.00,,,0.00,,2013-08-31 21:34:00,
2013-08-31 14:39:00,77.0,57.1,29.94,SW,225,2.2,-999.0,50,0.00,,,0.00,,2013-08-31 21:39:00,
2013-08-31 14:44:00,77.6,57.5,29.94,WSW,247,5.1,-999.0,50,0.00,,,0.00,,2013-08-31 21:44:00,
2013-08-31 14:49:00,77.2,57.7,29.94,West,270,3.4,-999.0,51,0.00,,,0.00,,2013-08-31 21:49:00,
2013-08-31 14:54:00,77.2,57.7,29.94,WSW,247,7.6,-999.0,51,0.00,,,0.00,,2013-08-31 21:54:00,
2013-08-31 14:59:00,76.3,57.4,29.94,NW,315,7.6,-999.0,52,0.00,,,0.00,,2013-08-31 21:59:00,
2013-08-31 15:04:00,76.0,57.6,29.93,WSW,247,6.3,-999.0,53,0.00,,,0.00,,2013-08-31 22:04:00,
2013-08-31 15:09:00,76.1,57.8,29.93,NW,315,7.2,-999.0,53,0.00,,,0.00,,2013-08-31 22:09:00,
2013-08-31 15:14:00,76.5,58.1,29.93,West,270,6.0,-999.0,53,0.00,,,0.00,,2013-08-31 22:14:00,
2013-08-31 15:19:00,76.9,58.4,29.93,WNW,292,5.6,-999.0,53,0.00,,,0.00,,2013-08-31 22:19:00,
2013-08-31 15:24:00,77.4,58.4,29.93,West,270,5.4,-999.0,52,0.00,,,0.00,,2013-08-31 22:24:00,
2013-08-31 15:29:00,76.7,57.8,29.93,West,270,1.3,-999.0,52,0.00,,,0.00,,2013-08-31 22:29:00,
2013-08-31 15:34:00,76.1,57.8,29.93,NW,315,2.0,-999.0,53,0.00,,,0.00,,2013-08-31 22:34:00,
2013-08-31 15:39:00,76.5,58.6,29.93,SW,225,3.8,-999.0,54,0.00,,,0.00,,2013-08-31 22:39:00,
2013-08-31 15:45:00,76.9,57.9,29.93,NW,315,3.4,-999.0,52,0.00,,,0.00,,2013-08-31 22:45:00,
2013-08-31 15:50:00,76.9,58.4,29.92,West,270,4.7,-999.0,53,0.00,,,0.00,,2013-08-31 22:50:00,
2013-08-31 15:55:00,76.5,57.6,29.92,WSW,247,4.9,-999.0,52,0.00,,,0.00,,2013-08-31 22:55:00,
2013-08-31 16:00:00,76.3,58.0,29.92,West,270,2.7,-999.0,53,0.00,,,0.00,,2013-08-31 23:00:00,
2013-08-31 16:05:00,76.9,57.9,29.92,SW,225,6.5,-999.0,52,0.00,,,0.00,,2013-08-31 23:05:00,
2013-08-31 16:10:00,76.7,57.8,29.92,SW,225,7.2,-999.0,52,0.00,,,0.00,,2013-08-31 23:10:00,
2013-08-31 16:15:00,76.0,57.6,29.92,North,0,4.0,-999.0,53,0.00,,,0.00,,2013-08-31 23:15:00,
2013-08-31 16:20:00,75.1,57.2,29.92,WNW,292,1.8,-999.0,54,0.00,,,0.00,,2013-08-31 23:20:00,
2013-08-31 16:25:00,74.5,57.2,29.92,WNW,292,2.9,-999.0,55,0.00,,,0.00,,2013-08-31 23:25:00,
2013-08-31 16:30:00,73.8,57.5,29.92,WNW,292,4.5,-999.0,57,0.00,,,0.00,,2013-08-31 23:30:00,
2013-08-31 16:35:00,73.3,57.5,29.91,West,270,1.8,-999.0,58,0.00,,,0.00,,2013-08-31 23:35:00,
2013-08-31 16:40:00,72.7,57.5,29.92,NNE,22,3.6,-999.0,59,0.00,,,0.00,,2013-08-31 23:40:00,
2013-08-31 16:45:00,72.4,57.7,29.92,WSW,247,3.4,-999.0,60,0.00,,,0.00,,2013-08-31 23:45:00,
2013-08-31 16:50:00,71.8,57.3,29.92,NW,315,2.7,-999.0,60,0.00,,,0.00,,2013-08-31 23:50:00,
2013-08-31 16:56:00,71.5,57.8,29.91,WSW,247,2.2,-999.0,62,0.00,,,0.00,,2013-08-31 23:56:00,
2013-08-31 17:01:00,71.5,57.8,29.91,West,270,2.5,-999.0,62,0.00,,,0.00,,2013-09-01 00:01:00,
2013-08-31 17:06:00,71.3,57.6,29.91,West,270,3.4,-999.0,62,0.00,,,0.00,,2013-09-01 00:06:00,
2013-08-31 17:11:00,71.5,58.2,29.91,West,270,4.3,-999.0,63,0.00,,,0.00,,2013-09-01 00:11:00,
2013-08-31 17:16:00,71.6,58.0,29.91,WNW,292,2.2,-999.0,62,0.00,,,0.00,,2013-09-01 00:16:00,
2013-08-31 17:21:00,71.1,57.9,29.91,West,270,4.5,-999.0,63,0.00,,,0.00,,2013-09-01 00:21:00,
2013-08-31 17:26:00,70.9,57.7,29.91,SW,225,4.0,-999.0,63,0.00,,,0.00,,2013-09-01 00:26:00,
2013-08-31 17:31:00,70.6,57.3,29.91,WSW,247,5.8,-999.0,63,0.00,,,0.00,,2013-09-01 00:31:00,
2013-08-31 17:36:00,70.2,57.4,29.90,South,180,1.8,-999.0,64,0.00,,,0.00,,2013-09-01 00:36:00,
2013-08-31 17:41:00,69.7,56.9,29.90,WNW,292,1.8,-999.0,64,0.00,,,0.00,,2013-09-01 00:41:00,
2013-08-31 17:46:00,69.5,57.2,29.91,SW,225,3.6,-999.0,65,0.00,,,0.00,,2013-09-01 00:46:00,
2013-08-31 17:51:00,69.3,57.0,29.90,NW,315,2.9,-999.0,65,0.00,,,0.00,,2013-09-01 00:51:00,
2013-08-31 17:56:00,69.1,56.8,29.90,WNW,292,4.0,-999.0,65,0.00,,,0.00,,2013-09-01 00:56:00,
2013-08-31 18:01:00,68.9,57.1,29.90,SW,225,4.0,-999.0,66,0.00,,,0.00,,2013-09-01 01:01:00,
2013-08-31 18:07:00,68.2,56.8,29.90,NW,315,0.4,-999.0,67,0.00,,,0.00,,2013-09-01 01:07:00,
2013-08-31 18:12:00,67.1,56.6,29.91,NNE,22,1.8,-999.0,69,0.00,,,0.00,,2013-09-01 01:12:00,
2013-08-31 18:17:00,66.6,56.5,29.91,WSW,247,1.8,-999.0,70,0.00,,,0.00,,2013-09-01 01:17:00,
2013-08-31 18:22:00,66.2,56.5,29.91,North,0,3.4,-999.0,71,0.00,,,0.00,,2013-09-01 01:22:00,
2013-08-31 18:27:00,66.2,56.5,29.91,North,0,1.8,-999.0,71,0.00,,,0.00,,2013-09-01 01:27:00,
2013-08-31 18:32:00,66.4,56.7,29.91,NNW,337,1.8,-999.0,71,0.00,,,0.00,,2013-09-01 01:32:00,
2013-08-31 18:37:00,66.1,56.8,29.91,West,270,2.0,-999.0,72,0.00,,,0.00,,2013-09-01 01:37:00,
2013-08-31 18:42:00,65.9,56.6,29.91,SW,225,0.7,-999.0,72,0.00,,,0.00,,2013-09-01 01:42:00,
2013-08-31 18:47:00,65.7,56.4,29.91,SW,225,3.4,-999.0,72,0.00,,,0.00,,2013-09-01 01:47:00,
2013-08-31 18:52:00,65.2,56.7,29.91,North,0,3.6,-999.0,74,0.00,,,0.00,,2013-09-01 01:52:00,
2013-08-31 18:57:00,64.6,56.2,29.91,SSW,202,2.5,-999.0,74,0.00,,,0.00,,2013-09-01 01:57:00,
2013-08-31 19:02:00,63.9,56.2,29.91,WSW,247,5.4,-999.0,76,0.00,,,0.00,,2013-09-01 02:02:00,
2013-08-31 19:07:00,63.5,55.8,29.91,SSW,202,3.6,-999.0,76,0.00,,,0.00,,2013-09-01 02:07:00,
2013-08-31 19:13:00,63.4,55.6,29.91,West,270,1.1,-999.0,76,0.00,,,0.00,,2013-09-01 02:13:00,
2013-08-31 19:18:00,63.0,55.3,29.91,West,270,4.0,-999.0,76,0.00,,,0.00,,2013-09-01 02:18:00,
2013-08-31 19:23:00,62.8,55.4,29.91,WSW,247,4.0,-999.0,77,0.00,,,0.00,,2013-09-01 02:23:00,
2013-08-31 19:28:00,62.6,55.3,29.90,West,270,5.1,-999.0,77,0.00,,,0.00,,2013-09-01 02:28:00,
2013-08-31 19:33:00,62.3,55.6,29.90,West,270,2.5,-999.0,79,0.00,,,0.00,,2013-09-01 02:33:00,
2013-08-31 19:38:00,61.9,55.4,29.90,WSW,247,1.3,-999.0,79,0.00,,,0.00,,2013-09-01 02:38:00,
2013-08-31 19:43:00,61.9,55.4,29.91,NNE,22,2.9,-999.0,79,0.00,,,0.00,,2013-09-01 02:43:00,
2013-08-31 19:48:00,61.7,55.2,29.91,SW,225,1.8,-999.0,79,0.00,,,0.00,,2013-09-01 02:48:00,
2013-08-31 19:53:00,61.6,55.0,29.91,SW,225,1.1,-999.0,79,0.00,,,0.00,,2013-09-01 02:53:00,
2013-08-31 19:59:00,61.6,55.4,29.91,NW,315,1.8,-999.0,80,0.00,,,0.00,,2013-09-01 02:59:00,
2013-08-31 20:04:00,61.4,55.2,29.91,NE,45,1.1,-999.0,80,0.00,,,0.00,,2013-09-01 03:04:00,
2013-08-31 20:39:00,60.1,54.4,29.92,SW,225,2.5,-999.0,81,0.00,,,0.00,,2013-09-01 03:39:00,
2013-08-31 20:44:00,60.1,54.0,29.92,WSW,247,1.8,-999.0,80,0.00,,,0.00,,2013-09-01 03:44:00,
2013-08-31 20:49:00,59.9,54.5,29.92,NW,315,1.3,-999.0,82,0.00,,,0.00,,2013-09-01 03:49:00,
2013-08-31 20:54:00,59.8,54.0,29.93,West,270,1.6,-999.0,81,0.00,,,0.00,,2013-09-01 03:54:00,
2013-08-31 20:59:00,59.8,54.3,29.93,WNW,292,0.9,-999.0,82,0.00,,,0.00,,2013-09-01 03:59:00,
2013-08-31 21:01:00,59.8,54.6,29.93,WNW,292,0.4,-999.0,83,0.00,,,0.00,,2013-09-01 04:01:00,
2013-08-31 21:02:00,59.8,54.6,29.93,West,270,1.8,-999.0,83,0.00,,,0.00,,2013-09-01 04:02:00,
2013-08-31 21:08:00,59.8,54.3,29.93,SSW,202,1.1,-999.0,82,0.00,,,0.00,,2013-09-01 04:08:00,
2013-08-31 21:13:00,59.9,54.8,29.93,NNW,337,1.1,-999.0,83,0.00,,,0.00,,2013-09-01 04:13:00,
2013-08-31 21:18:00,59.8,54.6,29.93,WSW,247,1.1,-999.0,83,0.00,,,0.00,,2013-09-01 04:18:00,
2013-08-31 21:23:00,59.8,54.6,29.93,West,270,0.4,-999.0,83,0.00,,,0.00,,2013-09-01 04:23:00,
2013-08-31 21:28:00,59.8,54.3,29.93,WNW,292,0.4,-999.0,82,0.00,,,0.00,,2013-09-01 04:28:00,
2013-08-31 21:33:00,59.8,54.6,29.93,WNW,292,2.0,-999.0,83,0.00,,,0.00,,2013-09-01 04:33:00,
2013-08-31 21:38:00,59.9,54.8,29.93,North,0,0.4,-999.0,83,0.00,,,0.00,,2013-09-01 04:38:00,
2013-08-31 21:43:00,59.8,54.6,29.93,WNW,292,1.1,-999.0,83,0.00,,,0.00,,2013-09-01 04:43:00,
2013-08-31 21:48:00,59.8,54.3,29.93,SSE,157,1.6,-999.0,82,0.00,,,0.00,,2013-09-01 04:48:00,
2013-08-31 21:54:00,59.6,54.5,29.93,NNW,337,0.7,-999.0,83,0.00,,,0.00,,2013-09-01 04:54:00,
2013-08-31 21:59:00,59.4,54.3,29.93,North,0,1.6,-999.0,83,0.00,,,0.00,,2013-09-01 04:59:00,
2013-08-31 22:04:00,59.2,54.1,29.93,NNW,337,1.8,-999.0,83,0.00,,,0.00,,2013-09-01 05:04:00,
2013-08-31 22:09:00,59.0,53.9,29.94,NNW,337,0.9,-999.0,83,0.00,,,0.00,,2013-09-01 05:09:00,
2013-08-31 22:14:00,59.0,53.9,29.93,West,270,1.1,-999.0,83,0.00,,,0.00,,2013-09-01 05:14:00,
2013-08-31 22:19:00,59.2,54.1,29.93,NNW,337,0.9,-999.0,83,0.00,,,0.00,,2013-09-01 05:19:00,
2013-08-31 22:24:00,59.2,54.1,29.94,NE,45,1.1,-999.0,83,0.00,,,0.00,,2013-09-01 05:24:00,
2013-08-31 22:29:00,59.2,54.1,29.94,West,270,0.9,-999.0,83,0.00,,,0.00,,2013-09-01 05:29:00,
2013-08-31 22:34:00,59.2,54.1,29.94,ENE,67,0.9,-999.0,83,0.00,,,0.00,,2013-09-01 05:34:00,
2013-08-31 22:39:00,59.2,54.1,29.94,West,270,3.8,-999.0,83,0.00,,,0.00,,2013-09-01 05:39:00,
2013-08-31 22:45:00,59.2,54.1,29.94,WSW,247,2.2,-999.0,83,0.00,,,0.00,,2013-09-01 05:45:00,
2013-08-31 22:50:00,59.2,54.1,29.94,West,270,1.6,-999.0,83,0.00,,,0.00,,2013-09-01 05:50:00,
2013-08-31 22:55:00,59.0,53.9,29.94,North,0,2.0,-999.0,83,0.00,,,0.00,,2013-09-01 05:55:00,
2013-08-31 23:00:00,58.9,53.7,29.94,WSW,247,3.8,-999.0,83,0.00,,,0.00,,2013-09-01 06:00:00,
2013-08-31 23:05:00,58.7,53.8,29.94,NW,315,1.8,-999.0,84,0.00,,,0.00,,2013-09-01 06:05:00,
2013-08-31 23:10:00,58.7,54.2,29.94,SW,225,2.2,-999.0,85,0.00,,,0.00,,2013-09-01 06:10:00,
2013-08-31 23:15:00,58.7,54.2,29.94,WSW,247,1.8,-999.0,85,0.00,,,0.00,,2013-09-01 06:15:00,
2013-08-31 23:20:00,58.5,54.0,29.94,NNW,337,0.9,-999.0,85,0.00,,,0.00,,2013-09-01 06:20:00,
2013-08-31 23:25:00,58.5,54.4,29.94,SE,135,1.1,-999.0,86,0.00,,,0.00,,2013-09-01 06:25:00,
2013-08-31 23:30:00,58.3,53.8,29.94,WSW,247,2.2,-999.0,85,0.00,,,0.00,,2013-09-01 06:30:00,
2013-08-31 23:35:00,58.3,53.8,29.94,WSW,247,5.4,-999.0,85,0.00,,,0.00,,2013-09-01 06:35:00,
2013-08-31 23:40:00,58.5,54.0,29.94,WSW,247,0.9,-999.0,85,0.00,,,0.00,,2013-09-01 06:40:00,
2013-08-31 23:45:00,58.3,53.8,29.93,West,270,1.1,-999.0,85,0.00,,,0.00,,2013-09-01 06:45:00,
2013-08-31 23:51:00,58.1,53.6,29.94,West,270,1.3,-999.0,85,0.00,,,0.00,,2013-09-01 06:51:00,
2013-08-31 23:56:00,58.1,53.6,29.94,SW,225,0.7,-999.0,85,0.00,,,0.00,,2013-09-01 06:56:00,